• In Netherlands
  • List of Countries
  • For 7 days
  • Water Temperature
  • Satellite Maps
  • Weather Map
  • Weather Widgets
  • user-avatar
    Login

    Hourly Weather Wien

    Today, 1 March, Wednesday

    Time Temperature Precipitation Wind Pressure Humidity
    00:00 +5°C° 0.5 mm 6 mps 731 mmHg 83%
    01:00 +4°C° 0 mm 6 mps 732 mmHg 83%
    02:00 +4°C° 0.3 mm 6 mps 732 mmHg 81%
    03:00 +3°C° 0.3 mm 6 mps 732 mmHg 79%
    04:00 +3°C° 0.3 mm 6 mps 732 mmHg 78%
    05:00 +3°C° 0 mm 6 mps 733 mmHg 78%
    06:00 +3°C° 0 mm 5 mps 734 mmHg 78%
    07:00 +3°C° 0 mm 4 mps 735 mmHg 81%
    08:00 +3°C° 0 mm 5 mps 735 mmHg 77%
    09:00 +3°C° 0 mm 6 mps 735 mmHg 73%
    10:00 +4°C° 0 mm 7 mps 736 mmHg 68%
    11:00 +5°C° 0 mm 8 mps 736 mmHg 65%
    12:00 +6°C° 0 mm 8 mps 736 mmHg 62%
    13:00 +7°C° 0 mm 8 mps 736 mmHg 59%
    14:00 +6°C° 0 mm 7 mps 737 mmHg 60%
    15:00 +6°C° 0 mm 7 mps 737 mmHg 61%
    16:00 +7°C° 0 mm 6 mps 737 mmHg 63%
    17:00 +6°C° 0 mm 5 mps 738 mmHg 68%
    18:00 +5°C° 0 mm 4 mps 738 mmHg 74%
    19:00 +4°C° 0 mm 3 mps 739 mmHg 79%
    20:00 +3°C° 0 mm 3 mps 739 mmHg 79%
    21:00 +3°C° 0 mm 3 mps 740 mmHg 80%
    22:00 +3°C° 0 mm 3 mps 740 mmHg 80%
    23:00 +3°C° 0 mm 3 mps 740 mmHg 79%

    Tomorrow, 2 March, Thursday

    Time Temperature Precipitation Wind Pressure Humidity
    00:00 +3°C° 0 mm 3 mps 740 mmHg 78%
    01:00 +3°C° 0 mm 2 mps 740 mmHg 78%
    02:00 +3°C° 0.1 mm 3 mps 739 mmHg 77%
    03:00 +3°C° 0.1 mm 3 mps 739 mmHg 76%
    04:00 +3°C° 0.1 mm 3 mps 739 mmHg 75%
    05:00 +3°C° 0.2 mm 3 mps 739 mmHg 76%
    06:00 +3°C° 0.2 mm 3 mps 739 mmHg 78%
    07:00 +3°C° 0.2 mm 3 mps 739 mmHg 80%
    08:00 +4°C° 0.3 mm 3 mps 739 mmHg 79%
    09:00 +7°C° 0.3 mm 3 mps 739 mmHg 78%
    10:00 +8°C° 0.3 mm 3 mps 739 mmHg 78%
    11:00 +8°C° 0.2 mm 4 mps 739 mmHg 75%
    12:00 +10°C° 0.2 mm 4 mps 739 mmHg 73%
    13:00 +11°C° 0.2 mm 4 mps 740 mmHg 70%
    14:00 +9°C° 0 mm 5 mps 740 mmHg 70%
    15:00 +9°C° 0 mm 6 mps 741 mmHg 69%
    16:00 +9°C° 0 mm 6 mps 741 mmHg 69%
    17:00 +7°C° 0 mm 6 mps 742 mmHg 72%
    18:00 +6°C° 0 mm 5 mps 743 mmHg 74%
    19:00 +5°C° 0 mm 5 mps 743 mmHg 76%
    20:00 +3°C° 0 mm 5 mps 744 mmHg 76%
    21:00 +3°C° 0 mm 5 mps 744 mmHg 75%
    22:00 +3°C° 0 mm 6 mps 745 mmHg 75%
    23:00 +2°C° 0 mm 6 mps 745 mmHg 75%

    Day after tomorrow, 3 March, Friday

    Time Temperature Precipitation Wind Pressure Humidity
    00:00 +2°C° 0 mm 5 mps 745 mmHg 76%
    01:00 +2°C° 0 mm 5 mps 746 mmHg 77%
    02:00 +1°C° 0 mm 5 mps 746 mmHg 79%
    03:00 +1°C° 0 mm 4 mps 746 mmHg 81%
    04:00 +2°C° 0 mm 3 mps 746 mmHg 83%
    05:00 +1°C° 0 mm 3 mps 746 mmHg 85%
    06:00 +2°C° 0 mm 2 mps 746 mmHg 87%
    07:00 +2°C° 0 mm 1 mps 746 mmHg 88%
    08:00 +3°C° 0 mm 2 mps 746 mmHg 82%
    09:00 +5°C° 0 mm 3 mps 746 mmHg 75%
    10:00 +7°C° 0 mm 4 mps 746 mmHg 69%
    11:00 +8°C° 0 mm 5 mps 745 mmHg 67%
    12:00 +9°C° 0 mm 6 mps 744 mmHg 65%
    13:00 +10°C° 0 mm 7 mps 743 mmHg 63%
    14:00 +9°C° 0 mm 7 mps 742 mmHg 64%
    15:00 +9°C° 0 mm 7 mps 742 mmHg 66%
    16:00 +9°C° 0 mm 7 mps 741 mmHg 67%
    17:00 +8°C° 0 mm 7 mps 740 mmHg 71%
    18:00 +6°C° 0 mm 7 mps 740 mmHg 75%
    19:00 +5°C° 0 mm 6 mps 740 mmHg 79%
    20:00 +4°C° 0 mm 6 mps 740 mmHg 81%
    21:00 +4°C° 0 mm 6 mps 739 mmHg 83%
    22:00 +5°C° 0 mm 5 mps 739 mmHg 85%
    23:00 +5°C° 0 mm 5 mps 738 mmHg 86%

    4 March, Saturday

    Time Temperature Precipitation Wind Pressure Humidity
    00:00 +5°C° 0 mm 5 mps 738 mmHg 88%
    01:00 +3°C° 0 mm 5 mps 737 mmHg 89%
    02:00 +3°C° 0 mm 5 mps 737 mmHg 89%
    03:00 +3°C° 0 mm 5 mps 736 mmHg 88%
    04:00 +3°C° 0 mm 5 mps 735 mmHg 88%
    05:00 +5°C° 0 mm 5 mps 735 mmHg 87%
    06:00 +4°C° 0 mm 6 mps 735 mmHg 86%
    07:00 +4°C° 0 mm 6 mps 734 mmHg 84%
    08:00 +6°C° 0 mm 7 mps 734 mmHg 77%
    09:00 +9°C° 0 mm 7 mps 734 mmHg 70%
    10:00 +11°C° 0 mm 8 mps 733 mmHg 63%
    11:00 +12°C° 0 mm 8 mps 733 mmHg 60%
    12:00 +13°C° 0 mm 9 mps 733 mmHg 58%
    13:00 +15°C° 0 mm 9 mps 733 mmHg 55%
    14:00 +15°C° 0 mm 7 mps 733 mmHg 57%
    15:00 +15°C° 0 mm 6 mps 734 mmHg 59%
    16:00 +15°C° 0 mm 5 mps 734 mmHg 62%
    17:00 +13°C° 0 mm 4 mps 734 mmHg 69%
    18:00 +11°C° 0 mm 3 mps 735 mmHg 77%
    19:00 +9°C° 0 mm 2 mps 735 mmHg 85%
    20:00 +9°C° 0 mm 2 mps 735 mmHg 85%
    21:00 +9°C° 0 mm 3 mps 735 mmHg 85%
    22:00 +9°C° 0 mm 3 mps 735 mmHg 85%
    23:00 +8°C° 0 mm 4 mps 735 mmHg 85%

    5 March, Sunday

    Time Temperature Precipitation Wind Pressure Humidity
    00:00 +8°C° 0 mm 5 mps 734 mmHg 85%
    01:00 +8°C° 0 mm 5 mps 734 mmHg 85%
    02:00 +9°C° 0 mm 6 mps 734 mmHg 84%
    03:00 +9°C° 0 mm 7 mps 733 mmHg 84%
    04:00 +9°C° 0 mm 7 mps 733 mmHg 84%
    05:00 +9°C° 0 mm 7 mps 734 mmHg 84%
    06:00 +9°C° 0 mm 7 mps 734 mmHg 84%
    07:00 +9°C° 0 mm 7 mps 735 mmHg 83%
    08:00 +10°C° 0 mm 6 mps 735 mmHg 78%
    09:00 +11°C° 0 mm 6 mps 736 mmHg 72%
    10:00 +13°C° 0 mm 5 mps 737 mmHg 67%
    11:00 +13°C° 0 mm 5 mps 737 mmHg 65%
    12:00 +14°C° 0 mm 5 mps 736 mmHg 64%
    13:00 +15°C° 0 mm 4 mps 736 mmHg 62%
    14:00 +14°C° 0 mm 5 mps 736 mmHg 64%
    15:00 +14°C° 0 mm 5 mps 735 mmHg 65%
    16:00 +14°C° 0 mm 5 mps 735 mmHg 67%
    17:00 +13°C° 0 mm 6 mps 735 mmHg 71%
    18:00 +11°C° 0 mm 6 mps 735 mmHg 75%
    19:00 +10°C° 0 mm 6 mps 734 mmHg 79%
    20:00 +10°C° 0 mm 6 mps 734 mmHg 80%
    21:00 +10°C° 0 mm 6 mps 734 mmHg 80%
    22:00 +9°C° 0 mm 6 mps 734 mmHg 80%
    23:00 +9°C° 0 mm 6 mps 734 mmHg 80%

    6 March, Monday

    Time Temperature Precipitation Wind Pressure Humidity
    00:00 +9°C° 0 mm 5 mps 733 mmHg 81%
    01:00 +8°C° 0 mm 5 mps 733 mmHg 81%
    02:00 +8°C° 0.1 mm 5 mps 733 mmHg 82%
    03:00 +8°C° 0.1 mm 5 mps 733 mmHg 82%
    04:00 +8°C° 0.1 mm 5 mps 733 mmHg 83%
    05:00 +7°C° 0 mm 5 mps 733 mmHg 83%
    06:00 +7°C° 0 mm 5 mps 733 mmHg 83%
    07:00 +7°C° 0 mm 5 mps 733 mmHg 84%
    08:00 +8°C° 0 mm 5 mps 733 mmHg 78%
    09:00 +9°C° 0 mm 5 mps 733 mmHg 73%
    10:00 +10°C° 0 mm 5 mps 733 mmHg 68%
    11:00 +10°C° 0.1 mm 5 mps 733 mmHg 68%
    12:00 +12°C° 0.1 mm 5 mps 733 mmHg 68%
    13:00 +12°C° 0.1 mm 5 mps 733 mmHg 68%
    14:00 +12°C° 0.2 mm 5 mps 733 mmHg 70%
    15:00 +12°C° 0.2 mm 4 mps 733 mmHg 71%
    16:00 +12°C° 0.2 mm 3 mps 733 mmHg 72%
    17:00 +11°C° 0.6 mm 3 mps 734 mmHg 77%
    18:00 +10°C° 0.6 mm 2 mps 734 mmHg 81%
    19:00 +10°C° 0.6 mm 2 mps 735 mmHg 85%
    20:00 +9°C° 1 mm 2 mps 735 mmHg 87%
    21:00 +9°C° 1 mm 2 mps 735 mmHg 88%
    22:00 +8°C° 1 mm 3 mps 736 mmHg 90%
    23:00 +8°C° 0.6 mm 3 mps 736 mmHg 89%
    Show more